Location: Roland
(31.1349°N, 85.4372°W)
Time: 22:44:25
(UTC+00:00)

Tiros 1 - Pass Details

Date: 19 April 2021
Orbit: 630 x 664 km, 48.4° (Epoch: 05 May)

Event Time Altitude Azimuth Distance (km) Brightness Sun altitude
Rises 21:00:01 0° 316° (NW) 2,914 10.9 40.1°
Reaches altitude 10° 21:02:27 10° 324° (NW) 2,005 10.1 39.6°
Maximum altitude 21:06:50 42° 35° (NE) 898 8.0 38.7°
Drops below altitude 10° 21:11:13 10° 107° (ESE) 2,007 9.3 37.8°
Sets 21:13:38 0° 114° (ESE) 2,917 10.1 37.2°
